www.pogodaiklimat.ru

Погода и климат >> Архив погоды >> Австралия >> Квинсленд >> Арлингтон Риф


ПОГОДА на Арлингтон рифе

  • Прогноз погоды на Арлингтон рифе
  • Монитор погоды на Арлингтон рифе

АРХИВ ПОГОДЫ на Арлингтон рифе

Время (UTC), дата Ветер
(напр.,м/с)
 
Видим.   Явления Облачность Т
(С)
Тd
(С)
f
(%)
Тe
(С)
Тes
(С)
Комфортность P
(гПа)
Po
(гПа)
Тmin
(С)
Tmax
(С)
R
(мм)
R24
(мм)
S
(см)
17 11.09 0 н/о 1020.3 1019.3
20 11.09 0 н/о 1020.2 1019.2
23 11.09 0 н/о 1022.2 1021.2
02 12.09 0 н/о 1021.1 1020.1
05 12.09 0 н/о 1019.6 1018.6
08 12.09 0 н/о 1020.1 1019.1
11 12.09 0 н/о 1021.3 1020.3
14 12.09 0 н/о 1020.6 1019.6
17 12.09 0 н/о 1019.0 1018.0
20 12.09 0 н/о 1019.7 1018.7
23 12.09 0 н/о 1021.5 1020.5
02 13.09 0 н/о 1020.8 1019.8
05 13.09 0 н/о 1018.8 1017.8
08 13.09 0 н/о 1019.3 1018.3
11 13.09 0 н/о 1020.6 1019.6
14 13.09 0 н/о 1020.3 1019.3
17 13.09 0 н/о 1019.1 1018.1
20 13.09 0 н/о 1019.5 1018.5
23 13.09 0 н/о 1021.4 1020.4
02 14.09 0 н/о 1020.4 1019.4
05 14.09 0 н/о 1018.3 1017.3
08 14.09 0 н/о 1018.8 1017.8
11 14.09 0 н/о 1020.2 1019.2
14 14.09 0 н/о 1020.1 1019.1
17 14.09 0 н/о 1018.7 1017.7
20 14.09 0 н/о 1019.5 1018.5
23 14.09 0 н/о 1021.4 1020.4
02 15.09 0 н/о 1020.6 1019.6
05 15.09 0 н/о 1018.5 1017.5
08 15.09 0 н/о 1019.1 1018.1
11 15.09 0 н/о 1020.4 1019.4
14 15.09 0 н/о 1019.9 1018.9
17 15.09 0 н/о 1018.2 1017.2
20 15.09 0 н/о 1019.3 1018.3
23 15.09 0 н/о 1020.6 1019.6
02 16.09 0 н/о 1019.7 1018.7
05 16.09 0 н/о 1017.7 1016.7
08 16.09 0 н/о 1018.0 1017.0
11 16.09 0 н/о 1019.3 1018.3
14 16.09 0 н/о 1018.7 1017.7
17 16.09 0 н/о 1017.6 1016.6
20 16.09 0 н/о 1018.0 1017.0
23 16.09 0 н/о 1019.5 1018.5
02 17.09 0 н/о 1018.4 1017.4
05 17.09 0 н/о 1016.9 1015.9
08 17.09 0 н/о 1017.4 1016.4
11 17.09 0 н/о 1019.4 1018.4
14 17.09 0 н/о 1019.2 1018.2
17 17.09 0 н/о 1017.9 1016.9
20 17.09 0 н/о 1018.6 1017.6
23 17.09 0 н/о 1020.0 1019.0
02 18.09 0 н/о 1018.4 1017.4
05 18.09 0 н/о 1016.8 1015.8
08 18.09 0 н/о 1017.7 1016.7
11 18.09 0 н/о 1018.8 1017.8
14 18.09 0 н/о 1018.9 1017.9

 

Местоположение метеостанции Арлингтон Риф (Квинсленд, Австралия): широта -16.72 долгота 146.12 высота над уровнем моря 8 м.

В архиве по умолчанию представлена погода на Арлингтон рифе за последнюю неделю. Архивные данные за месяц целиком и за предыдущие месяцы, начиная с января 2011 года, Вы можете получить, выбрав интересующий диапазон дат из раскрывающегося списка и нажав кнопку "Ввод!".


*Определитесь, кто Вы:
робот инопланетянин человек

Внимание! Время в таблицах - всемирное. Для получения местного времени необходимо прибавить поправку, которая равна 10 ч.

Смотрите также архив погоды в соседних городах и на ближайших метеорологических станциях:

Погода в Кэрнсе (Квинсленд, Австралия) (43 км)
Погода на Острове Лоу (Квинсленд, Австралия) (70 км)
Погода в Марибе (Квинсленд, Австралия) (83 км)
Погода в Юг Джонстон (Квинсленд, Австралия) (99 км)
Погода на Бугенвильском рифе (Квинсленд, Австралия) (172 км)
Погода в Куктауне (Квинсленд, Австралия) (173 км)
Погода на Холмс Рифе (Квинсленд, Австралия) (188 км)
Погода в Лусинде (Квинсленд, Австралия) (202 км)
Погода на Мысе Флэттери (Квинсленд, Австралия) (213 км)
Погода в Палмервилле (Квинсленд, Австралия) (233 км)

Пояснения к столбцам:

Ветер - указаны скорость ветра в м/с - средняя за 10 мин, порывы в срок и между сроками (в фигурных скобках) и направление, откуда дует ветер: С - северный, СВ - северо-восточный, В - восточный, ЮВ - юго-восточный, Ю - южный, ЮЗ - юго-западный, З - западный, СЗ - северо-западный.
Видимость - горизонтальная дальность видимости в метрах или километрах. При видимости от 1 до 10 км при отсутствии осадков обычно наблюдается дымка, при ухудшении видимости до 1 км и менее - туман. В сухую погоду видимость может ухудшаться дымом, пылью или мглою.
Явления - указаны атмосферные явления, наблюдавшиеся в срок или в последний час перед сроком; фигурными скобками обозначены явления, наблюдавшиеся между сроками (за 1-3 часа до срока); квадратными скобками обозначены град или гололедные отложения с указанием их диаметра в мм.
Облачность - указаны через наклонную черту общая и нижняя облачность в баллах и высота нижней границы облаков в метрах; квадратными скобками обозначены формы облаков: Ci - перистые, Cs - перисто-слоистые, Cc - перисто-кучевые, Ac - высококучевые, As - высокослоистые, Sc - слоисто-кучевые, Ns - слоисто-дождевые, Cu - кучевые, Cb - кучево-дождевые. Подробнее классификацию облаков см. в Атласе облаков (PDF).
T - Температура воздуха - температура, измеренная на высоте 2 м над землей.
Td - Температура точки росы - температура, при понижении до которой содержащийся в воздухе водяной пар достигнет насыщения.
f - Относительная влажность воздуха - влажноcть воздуха, измеренная на высоте 2 м над землей.
Te - Эффективная температура - температура, которую ощущает одетый по сезону человек в тени. Характеристика душности погоды. При расчете учитывается влияние влажности воздуха и скорости ветра на теплоощущения человека.
Tes - Эффективная температура на солнце - температура, которую ощущает человек, с поправкой на солнечный нагрев. Характеристика знойности погоды. Зависит от высоты солнца над горизонтом, облачности и скорости ветра. Ночью, в пасмурную погоду, а также при ветре 12 м/с и более поправка равна нулю.
P - Атмосферное давление - приведенное к уровню моря атмосферное давление.
Po - Атмосферное давление - измеренное на уровне метеостанции атмосферное давление.
Tmin - Минимальная температура - минимум температуры воздуха на высоте 2 м над землей.
Tmax - Максимальная температура - максимум температуры воздуха на высоте 2 м над землей.
R - Количество осадков - Количество выпавших осадков за период времени, мм. При наведении курсора мыши на число - период времени, за который выпало указанное количество осадков.
R24 - Количество осадков - Количество выпавших осадков за 24 часа, мм.
S - Снежный покров - Высота снежного покрова, см. При наведении курсора мыши на число - состояние снежного покрова и степень покрытия местности в баллах.